Change the Weather History Date:

Tuesday, November 29, 2011

  Actual Average Record
Temperature  
Mean Temperature 71 °F -  
Max Temperature 78 °F 80 °F 90 °F (1976)
Min Temperature 61 °F 64 °F 36 °F (1950)
Cooling Degree Days 6    
Growing Degree Days 21 (Base 50)    
Moisture  
Dew Point 57 °F    
Average Humidity 66    
Maximum Humidity 83    
Minimum Humidity 43    
Precipitation  
Precipitation 0.00 in - - ()
Sea Level Pressure  
Sea Level Pressure 29.98 in    
Wind  
Wind Speed 7 mph (NW)    
Max Wind Speed 13 mph    
Max Gust Speed 18 mph    
Visibility 10 miles    
Events      
Averages and records for this station are not official NWS values.
T = Trace of Precipitation, MM = Missing Value Source: NWS Daily Summary

Daily Weather History Graph

Daily Weather History Graph

Search for Another Location

Airport or City:

Trip Planner

Search our weather history database for the weather conditions in past years. The results will help you decide how hot, cold, wet, or windy it might be!

Date:

Astronomy

Nov. 29, 2011 Rise Set
Actual Time 6:49 AM EST 5:28 PM EST
Civil Twilight 6:24 AM EST 5:53 PM EST
Nautical Twilight 5:56 AM EST 6:21 PM EST
Astronomical Twilight 5:28 AM EST 6:49 PM EST
Moon 10:44 AM EST (11/29) 10:08 PM EST (11/29)
Length of Visible Light 11h 28m
Length of Day
10h 38m
Waxing Crescent, 24% of the Moon is Illuminated
Nov 29
Waxing Crescent
Dec 2
First Quarter
Dec 10
Full
Dec 17
Last Quarter
Dec 24
New

Hourly Weather History & Observations

Time (EST) Temp. Dew Point Humidity Pressure Visibility Wind Dir Wind Speed Gust Speed Precip Events Conditions
12:11 AM 69.8 °F 62.6 °F 78% 29.93 in 10.0 mi NW 5.8 mph - N/A   Mostly Cloudy
1:53 AM 66.2 °F 60.8 °F 83% 29.93 in 10.0 mi WNW 9.2 mph - N/A   Scattered Clouds
2:32 AM 66.2 °F 60.8 °F 83% 29.94 in 10.0 mi WNW 10.4 mph 17.3 mph N/A   Overcast
2:41 AM 66.2 °F 60.8 °F 83% 29.93 in 10.0 mi WNW 10.4 mph - N/A   Overcast
2:53 AM 66.9 °F 61.0 °F 81% 29.94 in 10.0 mi WNW 9.2 mph - N/A   Overcast
3:29 AM 66.2 °F 60.8 °F 83% 29.95 in 10.0 mi NW 8.1 mph - N/A   Overcast
3:53 AM 66.0 °F 59.0 °F 78% 29.96 in 10.0 mi NW 8.1 mph - N/A   Overcast
5:19 AM 64.4 °F 59.0 °F 83% 29.96 in 10.0 mi NNW 5.8 mph - N/A   Overcast
5:53 AM 66.0 °F 57.9 °F 75% 29.97 in 10.0 mi NNW 5.8 mph - N/A   Mostly Cloudy
6:53 AM 66.9 °F 57.9 °F 73% 29.99 in 10.0 mi NNW 4.6 mph - N/A   Overcast
7:53 AM 66.9 °F 57.9 °F 73% 30.00 in 10.0 mi North 3.5 mph - N/A   Overcast
8:53 AM 68.0 °F 57.9 °F 70% 30.02 in 10.0 mi Calm Calm - N/A   Overcast
9:53 AM 70.0 °F 55.9 °F 61% 30.03 in 10.0 mi NNW 3.5 mph - N/A   Overcast
10:53 AM 71.1 °F 55.0 °F 57% 30.02 in 10.0 mi West 5.8 mph - N/A   Overcast
11:53 AM 73.0 °F 54.0 °F 51% 30.01 in 10.0 mi West 10.4 mph - N/A   Overcast
1:53 PM 78.1 °F 54.0 °F 43% 29.94 in 10.0 mi West 12.7 mph 18.4 mph N/A   Scattered Clouds
2:53 PM 78.1 °F 54.0 °F 43% 29.94 in 10.0 mi West 10.4 mph - N/A   Partly Cloudy
3:53 PM 78.1 °F 55.0 °F 45% 29.94 in 10.0 mi WNW 10.4 mph - N/A   Scattered Clouds
4:53 PM 75.0 °F 54.0 °F 48% 29.95 in 10.0 mi NW 5.8 mph - N/A   Scattered Clouds
5:53 PM 73.0 °F 55.9 °F 55% 29.96 in 10.0 mi NW 6.9 mph - N/A   Scattered Clouds
6:53 PM 70.0 °F 54.0 °F 57% 29.99 in 10.0 mi Variable 6.9 mph - N/A   Clear
7:53 PM 68.0 °F 53.1 °F 59% 30.01 in 10.0 mi WNW 5.8 mph - N/A   Clear
8:53 PM 66.0 °F 51.1 °F 59% 30.02 in 10.0 mi WNW 6.9 mph - N/A   Clear
9:53 PM 64.0 °F 50.0 °F 60% 30.04 in 10.0 mi WNW 4.6 mph - N/A   Clear
11:53 PM 61.0 °F 52.0 °F 72% 30.04 in 10.0 mi Calm Calm - N/A   Clear